Date,TemperatureHighF,TemperatureAvgF,TemperatureLowF,DewpointHighF,DewpointAvgF,DewpointLowF,HumidityHigh,HumidityAvg,HumidityLow,PressureMaxIn,PressureMinIn,WindSpeedMaxMPH,WindSpeedAvgMPH,GustSpeedMaxMPH,PrecipitationSumIn
2012-1-1,39.0,30.0,19.0,22.0,14.5,8.0,75,54,36,0.00,40.00,13,6,17,0.00
2012-1-2,55.0,43.7,35.0,24.0,21.2,19.0,53,42,28,0.00,40.00,17,12,25,0.00
2012-1-3,50.0,46.3,35.0,24.0,20.2,15.0,44,35,29,0.00,40.00,18,12,33,0.00
2012-1-4,61.0,53.8,48.0,23.0,19.1,16.0,32,26,22,0.00,40.00,18,10,31,0.00
2012-1-5,56.0,47.4,35.0,26.0,19.0,11.0,46,33,22,0.00,40.00,20,14,46,0.00
2012-1-6,39.0,34.2,28.0,17.0,12.1,9.0,52,40,30,0.00,40.00,14,8,23,0.00
2012-1-7,38.0,27.0,14.0,19.0,12.2,9.0,79,56,37,0.00,40.00,15,7,24,0.00
2012-1-8,44.0,38.2,32.0,27.0,21.7,14.0,58,51,46,0.00,40.00,10,6,19,0.00
2012-1-9,54.0,46.6,41.0,28.0,24.2,20.0,55,42,26,0.00,40.00,12,8,22,0.00
2012-1-10,46.0,34.3,17.0,31.0,21.7,8.0,93,63,41,0.00,40.00,15,7,24,0.00
2012-1-11,28.0,17.2,-1.0,9.0,4.8,-4.0,85,59,41,0.00,40.00,10,4,13,0.00
2012-1-12,36.0,29.3,21.0,11.0,6.7,4.0,56,39,28,0.00,40.00,8,5,15,0.00
2012-1-13,43.0,38.5,36.0,15.0,8.2,3.0,39,28,23,0.00,40.00,10,6,24,0.00
2012-1-14,49.0,39.7,31.0,18.0,13.5,10.0,44,35,24,0.00,40.00,19,10,29,0.00
2012-1-15,46.0,21.6,7.0,20.0,6.9,-2.0,71,55,26,0.00,40.00,19,11,35,0.00
2012-1-16,8.0,4.0,-1.0,-2.0,-5.2,-9.0,70,65,57,0.00,40.00,11,8,16,0.00
2012-1-17,10.0,-1.2,-10.0,-2.0,-9.6,-18.0,73,67,58,0.00,40.00,19,7,24,0.00
2012-1-18,-6.0,-13.4,-16.0,-14.0,-23.1,-26.0,68,61,58,0.00,40.00,12,8,19,0.00
2012-1-19,-2.0,-6.0,-12.0,-11.0,-14.2,-21.0,69,66,63,0.00,40.00,9,6,12,0.00
2012-1-20,29.0,9.0,-7.0,23.0,2.7,-14.0,89,75,68,0.00,40.00,13,6,17,0.00
2012-1-21,48.0,42.8,37.0,34.0,27.7,16.0,69,55,41,0.00,40.00,16,10,31,0.00
2012-1-22,37.0,33.4,29.0,20.0,12.5,7.0,60,42,32,0.00,40.00,16,9,27,0.00
2012-1-23,41.0,33.7,21.0,21.0,15.1,9.0,64,46,37,0.00,40.00,10,7,20,0.00
2012-1-24,42.0,32.5,22.0,16.0,8.5,3.0,64,38,22,0.00,40.00,16,8,29,0.00
2012-1-25,48.0,42.4,39.0,30.0,22.9,16.0,55,46,35,0.00,40.00,30,17,46,0.00
2012-1-26,47.0,40.3,32.0,30.0,21.5,11.0,55,47,36,0.00,40.00,22,12,37,0.00
2012-1-27,34.0,28.3,19.0,14.0,7.4,-1.0,64,43,23,0.00,40.00,18,9,27,0.00
2012-1-28,42.0,34.2,28.0,25.0,9.2,3.0,50,35,27,0.00,40.00,17,11,34,0.00
2012-1-29,54.0,48.8,42.0,33.0,27.4,23.0,57,44,31,0.00,40.00,22,15,42,0.00
2012-1-30,49.0,44.5,39.0,29.0,24.7,19.0,52,46,35,0.00,40.00,20,13,32,0.00
2012-1-31,46.0,39.3,32.0,22.0,18.9,15.0,53,44,28,0.00,40.00,18,9,32,0.00
2012-2-1,45.0,39.2,32.0,24.0,17.8,15.0,56,42,29,0.00,40.00,12,7,17,0.00
2012-2-2,39.0,33.5,23.0,29.0,24.5,18.0,94,70,54,0.00,40.00,7,3,13,0.00
2012-2-3,42.0,26.6,17.0,24.0,18.3,14.0,94,73,41,0.00,40.00,8,5,11,0.00
2012-2-4,46.0,34.3,24.0,21.0,16.4,10.0,77,50,27,0.00,40.00,12,8,18,0.00
2012-2-5,45.0,35.8,27.0,24.0,14.5,12.0,67,42,29,0.00,40.00,10,6,16,0.00
2012-2-6,34.0,29.2,24.0,25.0,22.2,16.0,83,75,66,0.00,40.00,7,6,16,0.00
2012-2-7,25.0,22.3,18.0,18.0,15.9,13.0,85,76,65,0.00,40.00,9,6,12,0.00
2012-2-8,45.0,29.8,11.0,23.0,14.9,8.0,88,58,30,0.00,40.00,12,6,18,0.00
2012-2-9,45.0,37.9,27.0,27.0,24.0,14.0,78,58,46,0.00,40.00,9,6,16,0.00
2012-2-10,27.0,20.4,17.0,16.0,12.3,10.0,84,71,57,0.00,40.00,13,8,17,0.00
2012-2-11,23.0,16.9,12.0,17.0,11.7,9.0,90,80,66,0.00,40.00,11,6,13,0.00
2012-2-12,40.0,32.1,24.0,26.0,21.1,15.0,70,64,55,0.00,40.00,11,8,18,0.00
2012-2-13,43.0,34.4,26.0,26.0,21.4,16.0,86,61,40,0.00,40.00,8,5,11,0.00
2012-2-14,38.0,30.1,19.0,24.0,20.2,15.0,93,68,41,0.00,40.00,10,3,17,0.00
2012-2-15,41.0,24.3,11.0,22.0,14.1,7.0,92,68,39,0.00,40.00,8,4,15,0.00
2012-2-16,42.0,34.7,28.0,20.0,14.1,10.0,56,43,28,0.00,40.00,13,8,25,0.00
2012-2-17,46.0,37.1,28.0,26.0,20.6,17.0,74,52,32,0.00,40.00,10,5,21,0.00
2012-2-18,44.0,37.5,33.0,23.0,17.5,12.0,54,45,29,0.00,40.00,15,9,23,0.00
2012-2-19,41.0,33.4,29.0,16.0,13.4,11.0,54,44,33,0.00,40.00,16,9,26,0.00
2012-2-20,38.0,33.5,29.0,19.0,13.7,11.0,59,44,36,0.00,40.00,15,9,24,0.00
2012-2-21,45.0,41.0,32.0,30.0,23.7,19.0,59,50,45,0.00,40.00,18,10,31,0.00
2012-2-22,49.0,40.4,24.0,34.0,29.9,23.0,96,68,45,0.00,40.00,18,10,40,0.00
2012-2-23,42.0,26.1,18.0,29.0,19.1,13.0,96,76,48,0.00,40.00,7,5,16,0.00
2012-2-24,43.0,33.9,16.0,22.0,17.5,13.0,89,54,38,0.00,40.00,12,6,19,0.00
2012-2-25,42.0,36.5,21.0,27.0,19.4,12.0,87,52,37,0.00,40.00,16,9,28,0.00
2012-2-26,29.0,21.2,16.0,15.0,10.1,5.0,80,62,52,0.00,40.00,12,9,18,0.00
2012-2-27,41.0,24.9,16.0,19.0,12.0,6.0,87,62,27,0.00,40.00,7,4,11,0.00
2012-2-28,42.0,27.7,14.0,15.0,10.3,6.0,70,50,27,0.00,40.00,10,7,19,0.00
2012-2-29,44.0,33.4,25.0,24.0,13.3,7.0,60,44,29,0.00,40.00,14,9,26,0.00
2012-3-1,36.0,30.5,24.0,21.0,11.1,6.0,79,47,30,0.00,40.00,13,7,20,0.00
2012-3-2,36.0,28.9,17.0,20.0,14.4,10.0,88,58,34,0.00,40.00,18,10,31,0.00
2012-3-3,47.0,40.8,33.0,28.0,22.8,15.0,52,49,45,0.00,40.00,23,12,39,0.00
2012-3-4,57.0,49.8,44.0,28.0,23.3,16.0,50,37,22,0.00,40.00,26,16,38,0.00
2012-3-5,61.0,52.0,42.0,27.0,21.4,19.0,54,31,21,0.00,40.00,17,12,39,0.00
2012-3-6,42.0,31.7,20.0,30.0,15.7,7.0,74,52,38,0.00,40.00,11,7,23,0.00
2012-3-7,43.0,31.3,18.0,14.0,10.0,7.0,74,43,26,0.00,40.00,12,7,24,0.00
2012-3-8,51.0,41.6,30.0,19.0,16.2,13.0,54,37,25,0.00,40.00,14,7,28,0.00
2012-3-9,67.0,54.0,45.0,18.0,14.6,11.0,32,22,12,0.00,40.00,17,11,29,0.00
2012-3-10,65.0,51.9,37.0,20.0,16.7,13.0,50,26,15,0.00,40.00,15,10,24,0.00
2012-3-11,63.0,44.1,27.0,29.0,21.7,15.0,75,45,18,0.00,40.00,17,8,36,0.00
2012-3-12,53.0,42.8,31.0,26.0,17.7,12.0,50,37,27,0.00,40.00,14,9,27,0.00
2012-3-13,62.0,50.1,35.0,26.0,18.5,4.0,47,29,18,0.00,40.00,21,11,50,0.00
2012-3-14,49.0,40.4,31.0,27.0,16.7,8.0,52,38,31,0.00,40.00,18,10,26,0.00
2012-3-15,63.0,53.4,40.0,32.0,29.1,24.0,55,40,28,0.00,40.00,18,9,40,0.00
2012-3-16,58.0,49.3,32.0,39.0,31.2,22.0,77,51,33,0.00,40.00,17,8,34,0.00
2012-3-17,52.0,39.5,29.0,43.0,32.4,25.0,89,76,54,0.00,40.00,8,4,27,0.09
2012-3-18,41.0,36.3,31.0,34.0,29.8,26.0,97,78,61,0.00,40.00,10,4,17,0.06
2012-3-19,40.0,33.2,29.0,31.0,25.4,10.0,97,76,41,0.00,40.00,17,7,26,0.56
2012-3-20,45.0,38.3,30.0,28.0,17.9,10.0,53,43,37,0.00,40.00,23,14,38,0.56
2012-3-21,56.0,43.1,36.0,32.0,28.5,24.0,81,57,39,0.00,40.00,16,7,26,0.00
2012-3-22,65.0,53.5,35.0,33.0,28.0,-99.9,85,42,24,0.00,40.00,18,-2,38,0.00
2012-3-23,45.0,33.8,30.0,32.0,28.3,20.0,96,82,48,0.00,40.00,18,6,29,0.16
2012-3-24,31.0,29.3,28.0,28.0,27.3,27.0,96,92,88,0.00,40.00,9,6,13,0.08
2012-3-25,38.0,32.8,29.0,33.0,29.6,27.0,97,88,77,0.00,40.00,8,4,11,0.08
2012-3-26,44.0,36.1,30.0,38.0,33.1,29.0,99,89,74,0.00,40.00,7,4,10,0.04
2012-3-27,60.0,47.9,34.0,34.0,24.4,18.0,85,43,23,0.00,40.00,14,9,24,0.00
2012-3-28,60.0,43.3,29.0,35.0,29.2,23.0,85,59,36,0.00,40.00,16,7,46,0.00
2012-3-29,60.0,48.6,38.0,27.0,22.4,20.0,59,37,22,0.00,40.00,17,10,29,0.00
2012-3-30,65.0,56.2,47.0,35.0,30.3,26.0,58,38,28,0.00,40.00,24,14,46,0.00
2012-3-31,74.0,55.5,37.0,43.0,37.2,33.0,85,53,30,0.00,40.00,9,5,20,0.00
2012-4-1,56.0,46.9,38.0,41.0,26.1,14.0,75,46,29,0.00,40.00,18,10,29,0.15
2012-4-2,53.0,41.5,33.0,19.0,15.5,11.0,48,36,19,0.00,40.00,13,7,21,0.01
2012-4-3,63.0,45.9,30.0,24.0,17.9,13.0,57,35,17,0.00,40.00,13,7,23,0.00
2012-4-4,69.0,47.8,35.0,35.0,24.3,10.0,71,43,20,0.00,40.00,16,7,31,0.00
2012-4-5,52.0,41.1,32.0,21.0,16.2,10.0,54,38,21,0.00,40.00,12,6,17,0.00
2012-4-6,42.0,35.2,31.0,33.0,28.8,20.0,96,79,41,0.00,40.00,10,5,17,0.25
2012-4-7,48.0,37.7,28.0,29.0,19.8,12.0,93,54,24,0.00,40.00,16,8,29,0.02
2012-4-8,54.0,38.2,20.0,24.0,17.6,12.0,84,48,24,0.00,40.00,11,5,16,0.00
2012-4-9,55.0,40.0,24.0,29.0,22.3,15.0,81,50,35,0.00,40.00,12,5,17,0.00
2012-4-10,61.0,44.1,28.0,36.0,29.3,24.0,89,59,36,0.00,40.00,12,6,19,0.00
2012-4-11,66.0,49.5,31.0,38.0,32.7,27.0,90,56,34,0.00,40.00,14,6,19,0.00
2012-4-12,54.0,48.7,41.0,42.0,33.1,24.0,89,57,33,0.00,40.00,19,8,29,0.22
2012-4-13,61.0,48.6,38.0,28.0,22.9,15.0,64,40,18,0.00,40.00,16,8,24,0.05
2012-4-14,63.0,45.1,25.0,32.0,17.8,-99.9,79,44,8,0.00,40.00,15,5,26,0.00
2012-4-15,43.0,33.1,30.0,33.0,28.0,24.0,95,82,64,0.00,40.00,10,7,15,0.12
2012-4-16,56.0,44.9,30.0,33.0,29.5,26.0,92,58,34,0.00,40.00,14,7,22,0.07
2012-4-17,60.0,50.5,44.0,33.0,25.6,16.0,60,40,21,0.00,40.00,14,9,25,0.00
2012-4-18,59.0,47.6,40.0,41.0,30.8,20.0,82,55,29,0.00,40.00,16,6,31,0.00
2012-4-19,59.0,48.8,40.0,33.0,24.8,18.0,57,41,23,0.00,40.00,11,6,19,0.00
2012-4-20,65.0,56.7,49.0,39.0,33.4,25.0,53,41,35,0.00,40.00,23,14,38,0.00
2012-4-21,67.0,55.6,45.0,42.0,37.4,33.0,69,51,32,0.00,40.00,18,6,27,0.00
2012-4-22,84.0,58.8,33.0,44.0,33.1,26.0,92,49,13,0.00,40.00,10,5,25,0.00
2012-4-23,85.0,65.6,43.0,46.0,36.9,29.0,69,39,18,0.00,40.00,8,5,24,0.00
2012-4-24,78.0,68.0,57.0,44.0,38.2,33.0,51,35,23,0.00,40.00,18,10,31,0.00
2012-4-25,79.0,65.1,52.0,49.0,38.6,33.0,84,40,21,0.00,40.00,10,6,22,0.01
2012-4-26,75.0,59.3,50.0,54.0,47.6,36.0,92,68,38,0.00,40.00,13,4,34,0.09
2012-4-27,54.0,43.8,38.0,43.0,31.3,25.0,85,62,47,0.00,40.00,19,11,27,0.14
2012-4-28,53.0,44.3,39.0,36.0,30.3,-99.9,87,61,38,0.00,40.00,9,5,17,0.03
2012-4-29,60.0,49.3,36.0,35.0,30.8,28.0,81,53,32,0.00,40.00,13,7,24,0.00
2012-4-30,61.0,51.8,45.0,42.0,33.0,26.0,70,49,37,0.00,40.00,17,8,36,0.04
2012-5-1,54.0,48.9,44.0,32.0,22.3,16.0,50,36,24,0.00,40.00,23,14,36,0.04
2012-5-2,56.0,44.7,33.0,28.0,20.9,16.0,58,40,22,0.00,40.00,18,8,35,0.00
2012-5-3,55.0,43.1,23.0,43.0,28.5,16.0,82,58,33,0.00,40.00,11,4,20,0.01
2012-5-4,67.0,52.7,40.0,40.0,32.1,26.0,92,51,22,0.00,40.00,16,8,27,0.21
2012-5-5,52.0,45.2,41.0,40.0,28.1,-99.9,92,56,34,0.00,40.00,19,12,31,0.43
2012-5-6,59.0,47.1,37.0,33.0,25.4,21.0,61,44,26,0.00,40.00,12,6,19,0.00
2012-5-7,69.0,49.6,28.0,31.0,26.5,23.0,80,46,21,0.00,40.00,10,5,15,0.00
2012-5-8,78.0,59.3,36.0,35.0,27.6,22.0,78,36,13,0.00,40.00,13,8,21,0.00
2012-5-9,81.0,66.7,52.0,41.0,31.1,26.0,49,28,15,0.00,40.00,17,10,32,0.00
2012-5-10,61.0,50.9,37.0,29.0,13.7,1.0,36,23,11,0.00,40.00,17,12,32,0.00
2012-5-11,66.0,45.2,25.0,16.0,11.1,0.0,54,29,9,0.00,40.00,10,5,19,0.00
2012-5-12,75.0,50.0,29.0,22.0,14.0,-99.9,57,29,10,0.00,40.00,8,4,16,0.00
2012-5-13,83.0,55.1,33.0,27.0,19.9,13.0,59,29,11,0.00,40.00,9,4,17,0.00
2012-5-14,80.0,62.2,37.0,34.0,25.2,16.0,58,28,12,0.00,40.00,14,6,20,0.00
2012-5-15,90.0,64.6,42.0,37.0,31.0,19.0,68,34,9,0.00,40.00,9,6,16,0.00
2012-5-16,85.0,64.4,48.0,39.0,29.3,20.0,53,30,11,0.00,40.00,15,6,26,0.00
2012-5-17,66.0,57.9,51.0,50.0,37.9,24.0,95,50,21,0.00,40.00,12,6,21,0.04
2012-5-18,60.0,53.0,38.0,50.0,40.8,28.0,97,66,31,0.00,40.00,16,7,25,0.04
2012-5-19,66.0,50.7,34.0,37.0,27.5,-99.9,91,50,19,0.00,40.00,9,5,18,0.00
2012-5-20,75.0,57.9,36.0,35.0,30.9,27.0,70,40,20,0.00,40.00,11,6,20,0.00
2012-5-21,82.0,67.0,56.0,50.0,41.5,33.0,73,42,25,0.00,40.00,12,6,20,0.00
2012-5-22,61.0,57.0,50.0,54.0,38.9,28.0,90,55,30,0.00,40.00,20,12,37,0.14
2012-5-23,60.0,52.3,46.0,32.0,29.2,26.0,52,41,31,0.00,40.00,17,12,27,0.01
2012-5-24,53.0,45.7,39.0,39.0,33.9,28.0,80,64,50,0.00,40.00,17,8,24,0.01
2012-5-25,49.0,43.6,38.0,36.0,32.7,28.0,82,66,45,0.00,40.00,18,11,37,0.03
2012-5-26,43.0,39.1,33.0,37.0,33.8,30.0,96,82,61,0.00,40.00,17,8,26,0.52
2012-5-27,41.0,35.4,32.0,37.0,33.7,31.0,98,93,82,0.00,40.00,9,4,15,0.76
2012-5-28,56.0,42.1,32.0,41.0,36.7,32.0,98,83,53,0.00,40.00,8,4,14,0.53
2012-5-29,65.0,52.7,35.0,44.0,36.8,27.0,99,61,28,0.00,40.00,17,8,35,0.11
2012-5-30,64.0,57.2,48.0,37.0,29.6,25.0,65,35,29,0.00,40.00,14,8,22,0.00
2012-5-31,66.0,54.7,39.0,46.0,40.1,34.0,89,61,41,0.00,40.00,19,8,28,0.00
2012-6-1,72.0,63.2,53.0,48.0,45.3,42.0,76,53,42,0.00,40.00,14,8,23,0.00
2012-6-2,78.0,61.8,53.0,53.0,45.3,-99.9,78,58,35,0.00,40.00,17,7,29,0.01
2012-6-3,78.0,63.0,50.0,47.0,38.6,34.0,61,42,28,0.00,40.00,8,5,17,0.01
2012-6-4,78.0,63.1,45.0,55.0,47.8,41.0,86,60,40,0.00,40.00,14,6,30,0.00
2012-6-5,77.0,64.5,52.0,61.0,54.7,43.0,91,72,49,0.00,40.00,16,6,41,0.51
2012-6-6,62.0,53.4,46.0,45.0,34.0,28.0,74,49,32,0.00,40.00,20,11,32,0.47
2012-6-7,75.0,57.2,35.0,38.0,32.9,28.0,86,45,19,0.00,40.00,10,6,20,0.01
2012-6-8,73.0,59.0,48.0,42.0,36.8,31.0,63,46,24,0.00,40.00,13,7,27,0.00
2012-6-9,61.0,52.6,42.0,37.0,30.4,24.0,74,46,24,0.00,40.00,19,10,31,0.00
2012-6-10,53.0,48.9,46.0,44.0,36.4,28.0,83,63,44,0.00,40.00,15,9,25,0.33
2012-6-11,72.0,59.2,47.0,45.0,40.5,37.0,79,52,30,0.00,40.00,9,5,20,0.03
2012-6-12,79.0,62.0,42.0,46.0,41.0,36.0,93,52,24,0.00,40.00,13,6,25,0.00
2012-6-13,66.0,59.9,55.0,50.0,42.2,34.0,83,54,37,0.00,40.00,17,10,37,0.09
2012-6-14,75.0,61.5,45.0,42.0,36.0,29.0,78,42,21,0.00,40.00,10,7,18,0.02
2012-6-15,76.0,65.0,56.0,39.0,33.9,25.0,48,32,17,0.00,40.00,12,7,39,0.00
2012-6-16,75.0,61.1,44.0,42.0,31.1,-99.9,79,42,9,0.00,40.00,17,9,33,0.00
2012-6-17,76.0,70.2,62.0,50.0,40.7,33.0,51,35,25,0.00,40.00,21,14,42,0.00
2012-6-18,68.0,62.1,53.0,39.0,34.5,28.0,47,36,24,0.00,40.00,17,10,28,0.00
2012-6-19,64.0,56.2,46.0,40.0,35.8,32.0,63,47,36,0.00,40.00,14,9,24,0.00
2012-6-20,74.0,63.4,49.0,41.0,37.0,30.0,65,41,23,0.00,40.00,8,6,16,0.00
2012-6-21,81.0,64.8,43.0,47.0,41.1,36.0,77,46,22,0.00,40.00,13,8,23,0.00
2012-6-22,77.0,64.4,51.0,51.0,48.3,44.0,82,57,39,0.00,40.00,12,7,21,0.00
2012-6-23,86.0,69.0,55.0,60.0,54.0,48.0,83,61,40,0.00,40.00,12,7,23,0.00
2012-6-24,85.0,70.6,57.0,61.0,56.5,52.0,86,63,39,0.00,40.00,14,8,23,0.00
2012-6-25,86.0,75.0,65.0,64.0,61.2,59.0,88,64,42,0.00,40.00,16,8,26,0.00
2012-6-26,75.0,68.0,55.0,60.0,47.7,28.0,81,52,22,0.00,40.00,25,12,46,0.00
2012-6-27,76.0,62.6,52.0,33.0,28.9,25.0,44,30,16,0.00,40.00,18,11,32,0.00
2012-6-28,92.0,65.4,42.0,40.0,32.3,22.0,64,34,8,0.00,40.00,11,5,28,0.00
2012-6-29,86.0,72.8,56.0,43.0,38.7,32.0,51,31,15,0.00,40.00,16,9,31,0.00
2012-6-30,92.0,76.5,51.0,49.0,44.1,38.0,74,36,18,0.00,40.00,11,5,21,0.00
2012-7-1,85.0,72.6,58.0,52.0,46.4,41.0,68,42,24,0.00,40.00,13,6,25,0.00
2012-7-2,89.0,72.6,50.0,53.0,46.1,41.0,90,46,19,0.00,40.00,11,5,19,0.00
2012-7-3,81.0,71.0,54.0,50.0,41.7,28.0,63,37,22,0.00,40.00,21,11,35,0.00
2012-7-4,84.0,69.7,55.0,28.0,23.7,16.0,28,19,11,0.00,40.00,14,9,28,0.00
2012-7-5,83.0,67.7,50.0,41.0,32.6,24.0,43,28,18,0.00,40.00,13,5,20,0.00
2012-7-6,93.0,71.7,52.0,53.0,44.8,35.0,72,43,15,0.00,40.00,14,5,35,0.00
2012-7-7,94.0,72.3,51.0,51.0,45.7,35.0,79,44,17,0.00,40.00,11,6,29,0.03
2012-7-8,95.0,76.9,54.0,52.0,44.7,35.0,70,38,13,0.00,40.00,9,5,23,0.03
2012-7-9,101.0,78.0,56.0,48.0,42.5,27.0,61,33,10,0.00,40.00,16,5,33,0.03
2012-7-10,95.0,81.0,62.0,51.0,43.3,32.0,61,30,12,0.00,40.00,13,6,27,0.03
2012-7-11,94.0,78.4,61.0,50.0,42.9,34.0,63,33,13,0.00,40.00,9,6,21,0.00
2012-7-12,99.0,79.8,60.0,49.0,40.3,24.0,53,29,8,0.00,40.00,14,7,23,0.00
2012-7-13,87.0,76.9,59.0,60.0,48.3,31.0,54,37,20,0.00,40.00,11,6,32,0.03
2012-7-14,86.0,71.8,64.0,65.0,60.4,51.0,90,70,39,0.00,40.00,10,5,32,0.06
2012-7-15,83.0,71.5,62.0,65.0,54.3,35.0,89,58,32,0.00,40.00,15,6,35,0.36
2012-7-16,82.0,67.2,50.0,60.0,53.0,48.0,93,64,37,0.00,40.00,13,6,21,0.06
2012-7-17,90.0,73.1,58.0,62.0,56.1,47.0,96,62,25,0.00,40.00,10,4,20,0.01
2012-7-18,98.0,80.0,60.0,57.0,48.1,37.0,78,41,13,0.00,40.00,12,7,21,0.01
2012-7-19,97.0,79.6,61.0,50.0,40.6,29.0,59,30,10,0.00,40.00,11,5,22,0.00
2012-7-20,94.0,76.7,64.0,57.0,44.8,38.0,67,34,17,0.00,40.00,13,5,24,0.00
2012-7-21,93.0,76.0,58.0,61.0,48.7,30.0,93,48,14,0.00,40.00,18,8,32,0.00
2012-7-22,95.0,75.2,53.0,45.0,41.3,37.0,62,33,15,0.00,40.00,13,6,32,0.00
2012-7-23,93.0,80.6,60.0,53.0,41.1,18.0,55,28,10,0.00,40.00,16,9,32,0.00
2012-7-24,85.0,73.6,60.0,37.0,28.3,21.0,32,19,13,0.00,40.00,21,12,33,0.00
2012-7-25,86.0,71.0,51.0,46.0,42.1,37.0,61,37,23,0.00,40.00,15,7,22,0.00
2012-7-26,83.0,70.6,53.0,59.0,48.5,43.0,76,48,31,0.00,40.00,12,6,20,0.01
2012-7-27,94.0,70.7,56.0,55.0,48.3,38.0,78,50,15,0.00,40.00,16,6,35,0.05
2012-7-28,94.0,79.1,62.0,52.0,45.8,36.0,64,35,13,0.00,40.00,13,8,29,0.05
2012-7-29,97.0,77.2,57.0,47.0,42.2,30.0,62,32,10,0.00,40.00,11,6,20,0.00
2012-7-30,99.0,77.3,57.0,45.0,39.8,29.0,53,30,9,0.00,40.00,19,6,54,0.00
2012-7-31,94.0,76.9,56.0,46.0,39.0,29.0,56,29,11,0.00,40.00,14,6,27,0.00
2012-8-1,88.0,72.2,56.0,49.0,40.8,31.0,61,35,14,0.00,40.00,14,7,21,0.00
2012-8-2,84.0,74.6,60.0,48.0,36.2,23.0,57,28,12,0.00,40.00,14,10,25,0.00
2012-8-3,75.0,60.6,45.0,49.0,41.7,35.0,94,55,25,0.00,40.00,9,6,19,0.04
2012-8-4,87.0,66.6,45.0,44.0,36.7,24.0,79,42,10,0.00,40.00,9,6,17,0.04
2012-8-5,98.0,75.1,49.0,40.0,35.3,31.0,53,28,10,0.00,40.00,10,6,16,0.00
2012-8-6,95.0,76.4,57.0,45.0,40.9,38.0,50,30,14,0.00,40.00,12,7,22,0.00
2012-8-7,96.0,79.2,55.0,49.0,38.1,27.0,59,28,10,0.00,40.00,10,6,25,0.00
2012-8-8,101.0,75.7,51.0,51.0,35.8,28.0,45,26,11,0.00,40.00,15,5,39,0.00
2012-8-9,95.0,78.7,60.0,50.0,44.3,36.0,63,34,16,0.00,40.00,12,7,18,0.00
2012-8-10,90.0,75.4,60.0,54.0,43.6,33.0,54,34,21,0.00,40.00,10,6,20,0.03
2012-8-11,87.0,73.2,59.0,57.0,49.1,-99.9,81,48,22,0.00,40.00,14,7,22,0.05
2012-8-12,88.0,72.7,54.0,52.0,48.9,43.0,77,46,26,0.00,40.00,11,6,19,0.00
2012-8-13,91.0,74.3,55.0,53.0,47.4,40.0,77,43,19,0.00,40.00,11,7,19,0.00
2012-8-14,93.0,76.1,53.0,52.0,39.6,31.0,84,33,13,0.00,40.00,17,9,34,0.00
2012-8-15,59.0,53.7,47.0,52.0,48.5,43.0,97,83,58,0.00,40.00,7,4,16,0.59
2012-8-16,83.0,63.0,41.0,49.0,43.2,38.0,99,58,21,0.00,40.00,11,5,17,0.03
2012-8-17,87.0,68.5,48.0,46.0,38.2,29.0,79,41,13,0.00,40.00,11,6,19,0.00
2012-8-18,89.0,70.4,49.0,42.0,37.0,33.0,63,34,14,0.00,40.00,12,7,20,0.00
2012-8-19,94.0,72.3,49.0,42.0,36.6,27.0,65,32,10,0.00,40.00,9,5,13,0.00
2012-8-20,94.0,73.8,54.0,41.0,38.2,34.0,52,31,14,0.00,40.00,7,5,22,0.00
2012-8-21,94.0,72.8,59.0,56.0,44.1,37.0,79,41,15,0.00,40.00,15,6,27,0.03
2012-8-22,86.0,71.6,58.0,57.0,43.9,28.0,81,44,13,0.00,40.00,16,8,29,0.04
2012-8-23,88.0,68.3,46.0,39.0,32.4,26.0,62,32,13,0.00,40.00,20,8,32,0.00
2012-8-24,72.0,64.8,52.0,31.0,25.2,20.0,37,23,14,0.00,40.00,20,9,35,0.00
2012-8-25,82.0,59.1,36.0,36.0,25.1,4.0,64,33,5,0.00,40.00,12,6,21,0.00
2012-8-26,85.0,64.5,43.0,34.0,29.4,24.0,50,29,15,0.00,40.00,12,6,17,0.00
2012-8-27,97.0,74.3,55.0,55.0,39.7,29.0,60,31,14,0.00,40.00,17,6,36,0.01
2012-8-28,98.0,75.9,54.0,55.0,44.3,30.0,84,44,9,0.00,40.00,11,6,17,0.01
2012-8-29,80.0,66.9,51.0,41.0,33.0,22.0,51,31,13,0.00,40.00,18,9,30,0.00
2012-8-30,87.0,64.2,43.0,37.0,30.2,22.0,57,32,11,0.00,40.00,8,4,21,0.00
2012-8-31,93.0,69.1,45.0,40.0,31.0,26.0,52,28,11,0.00,40.00,13,6,20,0.00
2012-9-1,86.0,74.8,65.0,52.0,40.5,10.0,55,33,8,0.00,40.00,20,10,40,0.00
2012-9-2,80.0,68.9,53.0,25.0,19.1,14.0,21,15,10,0.00,40.00,21,10,32,0.00
2012-9-3,79.0,67.0,53.0,31.0,23.5,15.0,33,20,10,0.00,40.00,17,9,29,0.00
2012-9-4,67.0,60.8,49.0,40.0,32.8,24.0,58,35,23,0.00,40.00,18,7,24,0.00
2012-9-5,81.0,62.5,43.0,38.0,34.3,29.0,73,41,17,0.00,40.00,12,7,25,0.00
2012-9-6,63.0,56.1,45.0,46.0,42.4,36.0,83,61,39,0.00,40.00,9,6,17,0.00
2012-9-7,84.0,58.9,38.0,47.0,36.1,21.0,94,54,13,0.00,40.00,9,5,17,0.00
2012-9-8,89.0,64.3,39.0,37.0,26.8,20.0,52,28,11,0.00,40.00,11,5,17,0.00
2012-9-9,92.0,68.0,43.0,36.0,28.1,21.0,48,26,11,0.00,40.00,13,5,21,0.00
2012-9-10,78.0,69.8,56.0,38.0,28.9,21.0,34,23,12,0.00,40.00,19,12,36,0.00
2012-9-11,64.0,57.5,49.0,30.0,21.1,10.0,36,25,12,0.00,40.00,17,10,29,0.00
2012-9-12,68.0,53.9,35.0,22.0,18.1,10.0,44,26,16,0.00,40.00,10,4,18,0.00
2012-9-13,83.0,59.0,35.0,29.0,23.2,17.0,54,28,12,0.00,40.00,7,4,12,0.00
2012-9-14,86.0,65.3,47.0,29.0,23.4,19.0,42,24,9,0.00,40.00,16,7,30,0.00
2012-9-15,76.0,61.5,47.0,33.0,28.0,21.0,42,29,17,0.00,40.00,11,5,17,0.00
2012-9-16,68.0,56.8,43.0,34.0,30.7,28.0,59,38,25,0.00,40.00,10,6,17,0.00
2012-9-17,80.0,59.3,37.0,35.0,31.4,26.0,66,39,18,0.00,40.00,9,5,14,0.00
2012-9-18,86.0,64.9,42.0,38.0,29.5,21.0,59,32,12,0.00,40.00,15,7,23,0.00
2012-9-19,85.0,64.0,40.0,36.0,30.6,24.0,65,33,13,0.00,40.00,8,4,20,0.00
2012-9-20,85.0,62.3,42.0,34.0,30.4,26.0,58,33,16,0.00,40.00,11,4,16,0.00
2012-9-21,83.0,63.4,41.0,37.0,31.7,26.0,56,34,18,0.00,40.00,12,6,20,0.00
2012-9-22,83.0,63.2,42.0,38.0,32.8,-99.9,64,36,18,0.00,40.00,10,6,14,0.00
2012-9-23,72.0,58.4,42.0,39.0,34.9,31.0,66,43,28,0.00,40.00,10,5,14,0.00
2012-9-24,85.0,59.6,42.0,41.0,35.0,31.0,73,45,17,0.00,40.00,8,4,13,0.00
2012-9-25,81.0,60.2,43.0,44.0,37.4,31.0,66,45,23,0.00,40.00,9,5,15,0.00
2012-9-26,66.0,57.2,47.0,47.0,44.1,39.0,79,63,47,0.00,40.00,13,6,19,0.00
2012-9-27,76.0,56.3,37.0,47.0,40.9,36.0,96,62,31,0.00,40.00,10,5,17,0.00
2012-9-28,86.0,61.5,41.0,44.0,35.0,27.0,80,45,13,0.00,40.00,9,6,17,0.00
2012-9-29,78.0,64.3,48.0,41.0,35.4,27.0,49,35,24,0.00,40.00,12,6,25,0.00
2012-9-30,77.0,65.3,51.0,42.0,37.7,34.0,56,37,24,0.00,40.00,13,6,23,0.00
2012-10-1,78.0,61.7,40.0,39.0,33.5,29.0,79,42,18,0.00,40.00,17,9,29,0.00
2012-10-2,73.0,66.2,41.0,40.0,33.1,15.0,82,32,16,0.00,40.00,22,15,33,0.00
2012-10-3,41.0,34.8,32.0,36.0,32.6,31.0,98,92,82,0.00,40.00,11,3,20,0.82
2012-10-4,40.0,36.3,34.0,34.0,30.7,27.0,93,81,66,0.00,40.00,9,5,14,0.10
2012-10-5,45.0,34.3,28.0,30.0,25.4,19.0,95,73,37,0.00,40.00,7,3,12,0.00
2012-10-6,47.0,37.2,26.0,30.0,23.6,19.0,89,61,37,0.00,40.00,9,6,15,0.00
2012-10-7,67.0,48.2,35.0,32.0,28.4,25.0,80,51,24,0.00,40.00,9,6,17,0.00
2012-10-8,46.0,40.2,35.0,44.0,35.8,28.0,93,84,69,0.00,40.00,10,4,16,0.15
2012-10-9,63.0,45.2,36.0,38.0,32.8,26.0,94,68,27,0.00,40.00,7,4,12,0.11
2012-10-10,67.0,49.4,35.0,39.0,34.2,29.0,86,60,27,0.00,40.00,14,7,23,0.00
2012-10-11,49.0,38.5,32.0,38.0,33.6,29.0,94,83,63,0.00,40.00,12,7,16,0.02
2012-10-12,74.0,57.2,38.0,37.0,29.9,19.0,89,43,14,0.00,40.00,21,10,33,0.01
2012-10-13,63.0,58.3,54.0,41.0,35.5,24.0,53,43,25,0.00,40.00,16,9,32,0.00
2012-10-14,68.0,59.1,53.0,40.0,37.5,34.0,56,45,31,0.00,40.00,18,10,35,0.00
2012-10-15,64.0,60.4,56.0,42.0,38.7,35.0,53,45,35,0.00,40.00,21,12,28,0.00
2012-10-16,61.0,54.4,44.0,50.0,34.1,18.0,85,48,28,0.00,40.00,24,13,44,0.18
2012-10-17,53.0,44.2,31.0,27.0,19.4,13.0,62,39,20,0.00,40.00,14,9,29,0.01
2012-10-18,61.0,45.0,26.0,29.0,22.0,18.0,77,44,20,0.00,40.00,15,7,25,0.00
2012-10-19,66.0,57.7,49.0,38.0,31.5,26.0,48,37,32,0.00,40.00,19,11,37,0.00
2012-10-20,56.0,49.6,32.0,37.0,28.9,17.0,58,45,33,0.00,40.00,17,11,35,0.00
2012-10-21,53.0,39.8,30.0,21.0,17.8,13.0,62,42,22,0.00,40.00,7,4,15,0.00
2012-10-22,41.0,31.7,25.0,29.0,22.4,17.0,94,70,43,0.00,40.00,13,5,18,0.00
2012-10-23,27.0,25.4,20.0,24.0,20.4,18.0,94,81,71,0.00,40.00,11,6,18,0.00
2012-10-24,27.0,24.4,22.0,22.0,20.1,18.0,87,84,79,0.00,40.00,9,7,14,0.01
2012-10-25,26.0,22.9,17.0,18.0,16.3,13.0,85,76,62,0.00,40.00,8,5,14,0.01
2012-10-26,37.0,28.5,18.0,27.0,21.0,14.0,85,74,55,0.00,40.00,8,6,13,0.10
2012-10-27,47.0,35.6,24.0,32.0,28.3,22.0,95,76,56,0.00,40.00,12,5,18,0.01
2012-10-28,57.0,50.3,41.0,40.0,36.3,30.0,68,59,49,0.00,40.00,19,10,29,0.00
2012-10-29,63.0,55.4,46.0,42.0,38.5,30.0,78,54,37,0.00,40.00,19,10,36,0.00
2012-10-30,65.0,56.9,51.0,37.0,34.5,32.0,54,44,31,0.00,40.00,16,10,30,0.00
2012-10-31,55.0,40.2,32.0,38.0,32.5,30.0,92,75,49,0.00,40.00,16,8,21,0.00
2012-11-1,63.0,43.6,32.0,42.0,32.8,29.0,92,70,31,0.00,40.00,14,6,29,0.00
2012-11-2,58.0,46.7,31.0,34.0,30.3,26.0,82,55,31,0.00,40.00,12,6,20,0.00
2012-11-3,56.0,45.1,29.0,39.0,30.3,26.0,89,60,35,0.00,40.00,12,8,23,0.00
2012-11-4,60.0,54.7,51.0,41.0,38.3,36.0,60,54,44,0.00,40.00,16,10,26,0.00
2012-11-5,67.0,60.9,54.0,42.0,38.7,35.0,54,44,34,0.00,40.00,18,11,32,0.00
2012-11-6,67.0,55.3,44.0,40.0,35.1,31.0,73,48,29,0.00,40.00,10,6,17,0.00
2012-11-7,66.0,52.2,30.0,38.0,28.6,15.0,52,40,30,0.00,40.00,15,9,32,0.00
2012-11-8,31.0,28.5,27.0,27.0,24.5,15.0,95,85,52,0.00,40.00,15,5,22,0.00
2012-11-9,28.0,17.6,11.0,26.0,12.8,6.0,95,81,73,0.00,40.00,13,6,22,0.00
2012-11-10,16.0,8.6,-3.0,8.0,1.8,-9.0,80,73,65,0.00,40.00,9,4,11,0.00
2012-11-11,31.0,17.4,0.0,14.0,5.8,-6.0,77,61,46,0.00,40.00,10,7,17,0.20
2012-11-12,39.0,33.1,27.0,25.0,17.0,12.0,61,51,41,0.00,40.00,15,8,26,0.10
2012-11-13,45.0,40.7,36.0,28.0,25.6,23.0,61,55,47,0.00,40.00,15,7,26,0.14
2012-11-14,47.0,40.6,34.0,29.0,25.2,-99.9,70,56,46,0.00,40.00,15,7,21,0.03
2012-11-15,47.0,39.8,34.0,26.0,23.3,21.0,68,52,37,0.00,40.00,12,8,19,0.00
2012-11-16,46.0,40.7,37.0,31.0,26.3,22.0,74,57,48,0.00,40.00,13,8,21,0.00
2012-11-17,53.0,44.9,36.0,32.0,30.8,28.0,76,59,42,0.00,40.00,12,8,18,0.00
2012-11-18,51.0,43.9,33.0,33.0,24.5,16.0,64,47,29,0.00,40.00,22,10,36,0.00
2012-11-19,56.0,48.2,35.0,29.0,23.2,15.0,54,37,31,0.00,40.00,16,10,32,0.00
2012-11-20,60.0,55.4,48.0,37.0,31.9,28.0,66,41,36,0.00,40.00,13,9,29,0.00
2012-11-21,48.0,42.0,37.0,41.0,32.9,18.0,93,71,44,0.00,40.00,15,6,37,0.43
2012-11-22,41.0,33.1,20.0,22.0,18.0,7.0,86,55,38,0.00,40.00,16,8,29,0.15
2012-11-23,51.0,40.8,30.0,24.0,19.4,15.0,54,42,32,0.00,40.00,13,9,25,0.00
2012-11-24,48.0,42.2,31.0,32.0,27.9,21.0,91,60,37,0.00,40.00,19,9,29,0.00
2012-11-25,37.0,30.1,22.0,29.0,25.4,20.0,94,83,60,0.00,40.00,10,4,22,0.00
2012-11-26,33.0,26.4,20.0,20.0,15.7,10.0,91,65,38,0.00,40.00,9,5,16,0.00
2012-11-27,44.0,39.8,32.0,19.0,15.1,10.0,42,36,33,0.00,40.00,9,6,20,0.00
2012-11-28,53.0,44.9,40.0,24.0,21.5,19.0,52,39,28,0.00,40.00,14,8,21,0.00
2012-11-29,54.0,49.2,40.0,34.0,29.0,24.0,64,47,34,0.00,40.00,11,7,22,0.00
2012-11-30,56.0,50.9,46.0,36.0,31.7,26.0,62,48,35,0.00,40.00,12,8,34,0.00
2012-12-1,53.0,46.3,40.0,36.0,30.4,25.0,74,55,36,0.00,40.00,13,8,39,0.05
2012-12-2,56.0,47.8,40.0,38.0,30.8,20.0,64,52,43,0.00,40.00,20,10,37,0.03
2012-12-3,46.0,42.9,40.0,24.0,21.8,19.0,49,43,35,0.00,40.00,21,14,39,0.02
2012-12-4,53.0,46.7,40.0,34.0,26.4,19.0,65,45,39,0.00,40.00,13,9,25,0.00
2012-12-5,53.0,46.7,33.0,37.0,23.4,7.0,61,41,20,0.00,40.00,24,12,43,0.01
2012-12-6,36.0,32.6,30.0,19.0,13.3,-99.9,55,47,42,0.00,40.00,13,6,20,0.01
2012-12-7,41.0,34.7,30.0,25.0,18.6,12.0,75,52,33,0.00,40.00,12,7,24,0.00
2012-12-8,31.0,21.5,8.0,25.0,16.9,3.0,93,82,68,0.00,40.00,9,6,19,0.00
2012-12-9,29.0,13.6,-2.0,13.0,2.9,-8.0,80,64,46,0.00,40.00,12,7,24,0.00
2012-12-10,37.0,28.4,15.0,22.0,14.6,11.0,87,58,43,0.00,40.00,12,5,24,0.00
2012-12-11,44.0,36.0,18.0,25.0,21.9,13.0,85,57,43,0.00,40.00,19,10,31,0.00
2012-12-12,39.0,34.0,28.0,32.0,27.6,24.0,92,78,55,0.00,40.00,11,5,15,0.00
2012-12-13,38.0,33.6,28.0,26.0,18.2,14.0,92,55,39,0.00,40.00,13,9,23,0.00
2012-12-14,43.0,32.5,24.0,23.0,16.8,12.0,66,53,38,0.00,40.00,11,7,18,0.00
2012-12-15,36.0,26.4,14.0,19.0,13.7,10.0,86,61,39,0.00,40.00,15,6,24,0.00
2012-12-16,36.0,32.8,30.0,15.0,12.4,9.0,52,42,35,0.00,40.00,19,10,29,0.00
2012-12-17,44.0,36.7,32.0,27.0,18.0,9.0,67,47,35,0.00,40.00,19,10,35,0.00
2012-12-18,33.0,28.1,19.0,13.0,7.0,4.0,63,41,30,0.00,40.00,15,10,28,0.00
2012-12-19,31.0,25.1,18.0,9.0,5.2,3.0,65,43,32,0.00,40.00,14,7,26,0.00
2012-12-20,41.0,35.1,29.0,14.0,9.3,5.0,36,34,31,0.00,40.00,16,11,30,0.00
2012-12-21,46.0,37.2,17.0,17.0,9.5,6.0,72,34,22,0.00,40.00,17,11,26,0.00
2012-12-22,17.0,13.8,12.0,10.0,7.7,6.0,82,76,72,0.00,40.00,10,8,17,0.00
2012-12-23,41.0,14.5,6.0,18.0,7.7,0.0,84,75,32,0.00,40.00,22,8,27,0.00
2012-12-24,6.0,2.1,-5.0,0.0,-5.2,-11.0,76,71,68,0.00,40.00,11,7,19,0.00
2012-12-25,11.0,2.1,-5.0,2.0,-4.8,-11.0,77,72,65,0.00,40.00,11,5,13,0.00
2012-12-26,8.0,4.4,1.0,1.0,-2.6,-6.0,76,72,67,0.00,40.00,12,7,16,0.00
2012-12-27,29.0,14.7,1.0,17.0,6.6,-5.0,79,70,57,0.00,40.00,10,6,14,0.00
2012-12-28,35.0,24.8,8.0,18.0,12.9,4.0,84,62,43,0.00,40.00,9,4,15,0.00
2012-12-29,32.0,28.2,18.0,14.0,10.4,6.0,70,47,39,0.00,40.00,11,5,20,0.00
2012-12-30,32.0,22.9,13.0,15.0,12.0,6.0,86,64,46,0.00,40.00,8,5,17,0.00
2012-12-31,30.0,23.4,15.0,14.0,10.2,6.0,79,57,46,0.00,40.00,7,4,13,0.00
2013-1-1,33.0,25.7,15.0,17.0,12.5,7.0,69,57,49,0.00,40.00,7,5,11,0.00